This is the latest recevied weather packets stored in our database for station/object N4CRH-13. If no packets are shown the sender has not sent any weather packets the latest 10 day(s).
| Time | Temp. | Humidity | Pressure | Rain* | Wind** | Luminosity | Snow |
|---|---|---|---|---|---|---|---|
| 1777845745 | 20° C | 19% | 1291.5 hPa | 0 mm | - | 553 W/m² | - |
| 1777845442 | 18.89° C | 17% | 1291.7 hPa | 0 mm | - | 392 W/m² | - |
| 1777845139 | 18.89° C | 22% | 1291.8 hPa | 0 mm | - | 223 W/m² | - |
| 1777844836 | 18.33° C | 18% | 1291.9 hPa | 0 mm | - | 206 W/m² | - |
| 1777844533 | 18.33° C | 23% | 1291.8 hPa | 0 mm | - | 207 W/m² | - |
| 1777844231 | 19.44° C | 20% | 1291.9 hPa | 0 mm | - | 194 W/m² | - |
| 1777843928 | 19.44° C | 20% | 1292 hPa | 0 mm | - | 527 W/m² | - |
| 1777843625 | 19.44° C | 18% | 1292.3 hPa | 0 mm | - | 592 W/m² | - |
| 1777843322 | 17.78° C | 20% | 1292.2 hPa | 0 mm | - | 582 W/m² | - |
| 1777843020 | 18.33° C | 21% | 1292.4 hPa | 0 mm | - | 198 W/m² | - |
| 1777842716 | 17.78° C | 20% | 1292.5 hPa | 0 mm | - | 187 W/m² | - |
| 1777842412 | 17.78° C | 21% | 1292.5 hPa | 0 mm | - | 113 W/m² | - |
| 1777842109 | 18.89° C | 19% | 1292.5 hPa | 0 mm | - | 139 W/m² | - |
| 1777841804 | 20° C | 19% | 1292.3 hPa | 0 mm | - | 574 W/m² | - |
| 1777841501 | 19.44° C | 20% | 1292.8 hPa | 0 mm | - | 734 W/m² | - |
| 1777841198 | 18.33° C | 19% | 1293 hPa | 0 mm | - | 755 W/m² | - |
| 1777840895 | 18.89° C | 20% | 1292.9 hPa | 0 mm | - | 354 W/m² | - |
| 1777840592 | 18.89° C | 18% | 1293.2 hPa | 0 mm | - | 498 W/m² | - |
| 1777840289 | 18.89° C | 23% | 1293 hPa | 0 mm | - | 705 W/m² | - |
| 1777839986 | 18.33° C | 21% | 1293.1 hPa | 0 mm | - | 401 W/m² | - |
| 1777839684 | 18.89° C | 21% | 1293.2 hPa | 0 mm | - | 304 W/m² | - |
| 1777839382 | 18.89° C | 23% | 1293.4 hPa | 0 mm | - | 640 W/m² | - |
| 1777839079 | 18.89° C | 21% | 1293.2 hPa | 0 mm | - | 480 W/m² | - |
| 1777838775 | 17.78° C | 21% | 1293.7 hPa | 0 mm | - | 371 W/m² | - |
| 1777838472 | 17.78° C | 21% | 1293.7 hPa | 0 mm | - | 348 W/m² | - |
* Rain latest hour (hover to see other rain measurements)
** Current wind speed in m/s (hover to see current wind gust speed)